Location: *
(34.8620°S, 39.3380°E)
Time: 22:58:34
(UTC+00:00)

Lacrosse 4 Rocket - Pass Details

Date: 27 July 2021
Orbit: 542 x 615 km, 68.0° (Epoch: 20 September)

Event Time Altitude Azimuth Distance (km) Brightness Sun altitude
Exits shadow 01:19:56 13° 123° (ESE) 1,812 4.5 -37.0°
Drops below altitude 10° 01:21:34 10° 101° (E) 1,981 4.9 -36.7°
Sets 01:25:02 0° 72° (ENE) 2,864 5.9 -36.0°
